Location: Bonny Doon Airfield
(37.0704°N, 122.1252°W)
Time: 23:02:20
(UTC-07:00)

Vanguard 2 - Visible Passes

Search period start: 16 October 2017 00:00
Search period end: 26 October 2017 00:00
Orbit: 554 x 2939 km, 32.9° (Epoch: 16 October)

Date Brightness Start Highest point End Pass type
(mag) Time Alt. Az. Time Alt. Az. Time Alt. Az.
16 Oct 12.1 06:44:37 10° SSE 06:50:00 12° SE 06:54:48 10° SE visible
19 Oct 12.1 05:29:04 10° SSE 05:33:44 12° SE 05:38:07 10° SE visible
20 Oct 12.0 05:42:04 10° S 05:51:52 18° SE 06:00:27 10° ESE visible
21 Oct 11.7 05:57:27 10° S 06:09:59 25° SE 06:20:30 10° E visible
22 Oct 11.5 06:13:44 10° SSW 06:28:05 32° SSE 06:39:43 10° E visible
23 Oct 11.9 04:26:35 10° SSE 04:35:12 16° SE 04:43:24 10° ESE visible
23 Oct 11.3 06:30:36 10° SSW 06:46:12 40° SSE 06:58:30 10° E visible
24 Oct 11.7 04:41:18 10° S 04:53:09 22° SE 05:04:11 10° E visible
24 Oct 11.0 06:47:52 10° SW 07:04:21 48° SSE 07:17:02 10° E visible
25 Oct 11.5 04:57:15 10° SSW 05:11:06 29° SE 05:23:47 10° E visible
